This is the latest recevied weather packets stored in our database for station/object K3MV-13. If no packets are shown the sender has not sent any weather packets the latest 10 day(s).
| Time | Temp. | Humidity | Pressure | Rain* | Wind** | Luminosity | Snow |
|---|---|---|---|---|---|---|---|
| 1777809522 | 2.22° C | 82% | 1016.7 hPa | 0 mm | - | 167 W/m² | - |
| 1777809219 | 2.22° C | 84% | 1016.7 hPa | 0 mm | - | 149 W/m² | - |
| 1777808917 | 1.67° C | 85% | 1016.8 hPa | 0 mm | - | 119 W/m² | - |
| 1777808613 | 1.67° C | 87% | 1016.7 hPa | 0 mm | - | 92 W/m² | - |
| 1777808310 | 1.11° C | 89% | 1016.8 hPa | 0 mm | - | 79 W/m² | - |
| 1777808009 | 1.11° C | 90% | 1016.5 hPa | 0 mm | - | 69 W/m² | - |
| 1777807705 | 0.56° C | 92% | 1016.5 hPa | 0 mm | - | 61 W/m² | - |
| 1777807404 | 0.56° C | 93% | 1016.5 hPa | 0 mm | - | 84 W/m² | - |
| 1777807104 | 0° C | 93% | 1016.4 hPa | 0 mm | - | 76 W/m² | - |
| 1777806802 | 0° C | 94% | 1016.5 hPa | 0 mm | - | 63 W/m² | - |
| 1777806497 | -0.56° C | 94% | 1016.4 hPa | 0 mm | - | 45 W/m² | - |
| 1777806194 | -0.56° C | 94% | 1016.3 hPa | 0 mm | - | 31 W/m² | - |
| 1777805891 | -1.11° C | 94% | 1016.1 hPa | 0 mm | - | 27 W/m² | - |
| 1777805588 | -1.11° C | 94% | 1016 hPa | 0 mm | - | 24 W/m² | - |
| 1777805286 | -1.11° C | 93% | 1015.8 hPa | 0 mm | - | 21 W/m² | - |
| 1777804983 | -1.11° C | 93% | 1016 hPa | 0 mm | - | 17 W/m² | - |
| 1777804680 | -1.11° C | 93% | 1015.8 hPa | 0 mm | - | 13 W/m² | - |
| 1777804378 | -1.11° C | 93% | 1015.6 hPa | 0 mm | - | 10 W/m² | - |
| 1777804075 | -1.11° C | 93% | 1015.4 hPa | 0 mm | - | 8 W/m² | - |
| 1777803772 | -1.11° C | 93% | 1015.7 hPa | 0 mm | - | 5 W/m² | - |
| 1777803467 | -1.11° C | 93% | 1015.5 hPa | 0 mm | - | 3 W/m² | - |
| 1777803165 | -1.11° C | 92% | 1015.4 hPa | 0 mm | - | 2 W/m² | - |
| 1777802862 | -1.11° C | 92% | 1015.6 hPa | 0 mm | - | 1 W/m² | - |
| 1777802560 | -1.11° C | 92% | 1015.4 hPa | 0 mm | - | 0 W/m² | - |
| 1777802258 | -1.11° C | 92% | 1015.4 hPa | 0 mm | - | 0 W/m² | - |
* Rain latest hour (hover to see other rain measurements)
** Current wind speed in m/s (hover to see current wind gust speed)